Location: Baili�vre
(50.0696°N, 4.2409°E)
Time: 04:10:46
(UTC+00:00)

Okean 3 - Pass Details

Date: 08 August 2020
Orbit: 576 x 601 km, 82.5° (Epoch: 23 September)

Event Time Altitude Azimuth Distance (km) Brightness Sun altitude
Rises 22:43:41 0° 345° (NNW) 2,848 8.5 -22.6°
Reaches altitude 10° 22:45:56 10° 340° (NNW) 1,945 7.2 -22.7°
Maximum altitude 22:50:04 48° 266° (W) 789 4.1 -22.9°
Enters shadow 22:50:32 46° 245° (WSW) 814 4.0 -22.9°
